Theta_e
322 323 324 325 326 326 327 327 328 328 328 326 327 326 325 325 327 327 328 328 328 328 328 328 328 327 327 327 327 328 328 329 328 329 328 328 328 327 326 331 337 340 343 346 346 345 344 343 346 344 345 345 343 344 342 341 340 340 339 339 339 339 337 336 336 336 335 334 333 332 331 331 330 329 329 329 328 328 329 327 327 327 327 326 327
319 321 322 323 325 325 325 325 327 328 327 327 326 326 325 324 325 326 327 327 326 326 326 326 325 326 326 325 326 327 328 328 328 327 327 328 327 326 323 328 333 339 341 342 345 347 347 342 344 343 344 344 343 342 341 340 339 339 339 339 339 338 336 335 335 335 335 333 332 330 329 329 330 329 329 328 328 328 327 326 325 326 326 325 325
318 320 321 322 323 324 324 325 324 326 327 327 326 326 325 323 324 326 326 326 325 324 324 324 323 323 322 324 324 324 324 325 326 326 325 326 326 325 324 323 329 333 336 340 342 344 345 343 342 343 343 342 344 342 340 340 339 338 338 338 338 338 336 334 334 333 333 331 330 330 329 329 328 328 328 328 327 327 326 326 326 326 325 325 324
312 314 317 319 320 322 323 323 323 324 326 325 324 325 324 323 324 325 326 325 324 323 324 323 323 323 322 323 323 325 326 325 324 324 324 325 325 325 325 325 321 326 329 336 341 340 342 343 343 344 345 345 343 343 340 339 338 339 338 338 339 337 335 334 333 332 332 331 330 329 329 328 327 327 327 327 326 325 324 324 325 325 324 324 324
307 313 315 317 318 319 321 322 323 323 324 325 325 324 323 322 322 323 323 323 322 322 322 322 322 322 322 323 322 322 322 323 322 321 323 323 324 325 324 322 322 319 322 327 335 337 338 339 339 340 341 342 341 342 341 339 338 337 338 338 338 338 335 333 331 330 330 330 329 329 328 327 327 327 327 326 325 324 324 324 324 324 324 324 324
308 310 311 313 316 318 319 320 322 323 323 324 324 323 322 322 322 321 318 321 321 321 321 321 320 319 322 321 320 320 319 321 321 322 322 322 322 323 323 322 322 323 324 320 325 330 335 336 338 338 340 340 339 340 339 339 338 337 337 336 336 336 335 333 332 331 330 330 329 328 327 327 327 327 326 325 325 324 324 323 323 324 324 323 323
305 307 309 310 312 314 317 319 321 322 322 323 323 322 322 321 321 320 319 320 321 320 321 320 319 318 318 318 318 318 318 317 317 319 320 320 321 321 321 320 320 321 321 323 317 320 329 334 337 339 339 338 338 338 340 338 337 337 337 336 336 335 333 332 331 331 331 330 329 328 327 327 327 327 325 324 324 324 325 324 324 324 324 323 323
302 306 304 305 308 311 314 317 319 321 322 322 322 321 321 322 321 322 318 318 319 319 320 319 319 319 318 317 318 317 316 316 317 316 318 320 319 319 320 320 321 320 317 320 323 321 321 330 333 335 336 336 337 339 338 339 337 336 335 336 334 334 333 333 332 331 330 329 328 328 327 327 327 326 325 324 323 323 324 324 323 323 323 323 323
302 302 301 302 306 309 312 314 315 317 319 321 320 320 320 320 320 320 320 318 318 318 318 319 318 318 317 316 316 316 316 316 317 317 315 318 318 318 318 319 317 313 320 321 322 324 320 323 329 330 330 332 335 336 335 336 335 337 335 333 333 333 331 331 330 330 329 329 328 327 327 327 326 325 324 324 323 323 323 324 324 324 323 323 323
300 300 299 301 304 306 310 312 314 315 316 318 320 321 321 320 319 319 319 319 318 318 317 318 318 317 317 316 315 314 314 315 316 314 317 316 317 317 318 318 318 319 319 320 320 321 325 323 323 324 320 326 333 335 335 335 335 336 335 334 333 332 330 330 329 329 329 329 328 327 327 326 325 325 324 324 323 323 323 324 323 323 323 323 324
298 298 298 300 301 304 306 310 312 313 313 314 318 320 319 320 320 319 318 319 318 318 318 318 317 316 315 316 315 314 314 314 314 316 317 316 316 316 317 318 318 318 319 319 319 320 323 325 325 324 324 319 331 332 332 334 334 333 334 335 333 332 331 329 329 329 328 327 327 326 326 325 325 324 324 323 324 324 324 323 323 323 324 323 323
297 297 298 299 300 301 304 307 310 311 311 310 313 319 319 318 319 319 316 316 317 318 318 317 316 315 312 314 314 314 313 313 315 315 315 316 316 316 316 316 317 318 318 319 319 320 318 322 321 324 323 322 324 327 330 330 329 332 332 333 332 331 331 330 329 328 328 327 327 326 324 325 324 323 324 323 324 323 323 324 324 324 324 324 324
297 297 297 298 299 300 302 305 308 309 309 308 310 314 319 318 317 317 316 315 314 316 317 317 313 310 311 310 309 311 311 313 314 314 315 316 315 316 316 315 316 317 317 318 319 319 319 316 320 323 322 322 322 320 323 323 322 329 332 333 333 333 332 330 328 328 327 326 326 326 325 324 324 324 325 324 324 324 325 324 324 324 324 325 325
296 296 297 297 297 298 300 302 305 307 306 306 307 305 313 319 318 316 317 315 314 316 316 315 311 309 306 304 304 306 307 311 312 313 314 314 315 315 316 316 315 316 316 317 318 318 319 319 316 319 321 322 321 321 321 320 322 328 331 331 332 333 332 331 329 328 326 325 324 324 323 324 325 326 325 325 325 324 325 325 325 325 325 325 325
295 296 297 297 297 298 299 301 303 304 304 304 304 302 304 313 317 315 313 315 315 316 315 316 311 312 310 306 302 303 303 305 305 309 312 313 314 314 315 316 316 315 316 316 316 317 317 318 318 317 317 316 316 318 319 315 319 317 324 327 329 331 331 330 329 328 326 325 325 324 325 324 325 326 326 325 326 325 326 325 326 326 326 326 326
295 296 297 297 297 297 299 300 301 304 304 303 302 301 301 303 312 316 315 311 312 312 315 316 314 310 303 306 305 306 299 303 306 302 303 310 313 314 314 314 315 314 315 316 315 316 317 318 318 317 316 315 315 315 318 319 312 310 311 317 321 327 329 329 329 328 327 325 324 325 326 325 325 325 326 325 325 326 326 326 326 326 326 326 327
294 296 296 296 297 298 298 299 301 302 304 303 301 301 302 303 305 314 314 312 310 312 313 315 314 314 309 305 300 301 302 304 305 299 301 307 309 313 311 314 314 314 314 315 315 315 315 316 317 317 316 314 314 315 317 316 314 313 315 310 317 321 324 328 329 329 327 327 325 326 326 325 325 325 325 326 326 326 326 326 326 327 327 327 327
294 296 296 296 297 298 298 298 300 301 303 303 302 302 302 301 302 306 316 315 312 311 310 313 314 313 313 312 309 304 303 304 304 298 298 298 301 308 311 314 314 313 315 314 314 315 314 315 316 316 316 315 314 315 316 317 312 316 317 316 316 320 322 325 328 329 329 328 327 326 325 326 325 325 325 325 326 326 327 327 327 328 327 327 327
292 294 295 297 297 297 297 298 299 301 302 302 301 300 301 301 301 302 308 314 313 310 310 311 312 312 311 310 304 305 309 305 302 302 297 298 299 304 308 310 313 313 312 314 314 314 314 314 314 315 315 315 314 315 315 316 312 312 309 309 314 317 320 320 323 324 326 328 328 328 328 326 325 325 326 327 327 327 327 327 327 327 327 327 327
291 293 295 296 297 297 297 297 298 300 301 301 301 301 301 301 301 301 302 311 313 311 311 312 309 309 310 309 305 307 309 309 308 304 302 299 298 297 299 306 309 312 313 313 313 314 314 313 314 314 314 314 315 315 315 314 315 315 311 310 315 318 320 320 320 320 323 325 328 328 328 328 327 327 327 328 327 328 328 328 327 327 327 327 328
289 291 294 296 296 296 296 296 297 299 300 301 301 301 300 299 299 299 300 303 314 313 313 311 311 309 308 307 305 306 308 306 298 299 302 301 300 302 303 302 307 309 312 313 314 314 313 314 313 313 312 313 314 314 314 314 315 315 311 310 315 318 318 319 319 319 320 321 325 327 329 329 329 329 328 328 328 328 328 328 328 327 328 328 328
287 289 291 294 296 296 296 296 296 298 299 300 300 299 299 299 299 299 300 299 306 313 312 313 312 312 310 308 305 305 306 304 300 301 303 305 301 302 303 301 302 304 306 311 312 313 313 313 312 313 313 314 314 314 315 315 315 315 312 310 314 316 318 320 320 320 320 320 320 323 327 328 328 329 329 329 329 328 328 328 328 328 328 328 328
286 287 289 293 295 295 295 295 296 297 298 299 299 299 299 300 300 300 299 299 299 307 311 312 313 312 310 309 307 306 305 304 304 303 302 299 300 302 303 305 306 303 302 306 310 312 312 312 312 312 313 313 313 313 314 315 310 311 308 310 314 315 318 320 320 319 319 319 320 321 324 324 325 326 329 329 329 329 328 328 328 328 328 327 328
282 284 288 292 294 295 295 296 295 296 297 298 299 299 299 300 300 299 299 299 300 300 311 312 312 311 310 309 308 308 308 307 307 306 303 303 304 302 303 304 302 295 294 297 305 311 311 312 312 312 312 313 313 313 313 314 314 307 308 308 313 314 318 319 319 318 319 319 319 320 323 323 323 324 326 327 328 329 328 328 328 328 328 328 327
280 282 286 290 292 294 295 295 294 295 297 298 298 298 299 299 298 298 298 298 299 299 304 312 312 310 310 310 309 308 308 309 309 307 306 306 306 302 303 306 302 296 293 296 293 297 306 311 311 311 310 311 312 312 313 314 313 306 307 306 311 313 315 318 318 319 318 317 317 319 321 323 322 324 326 326 327 328 328 327 328 328 328 327 326
279 281 284 289 291 292 293 295 295 295 296 296 296 297 297 297 298 297 297 298 299 299 300 309 312 312 311 309 309 308 308 308 308 307 306 305 304 303 301 299 302 300 294 296 295 301 297 300 307 310 306 309 311 312 312 314 312 303 305 309 311 311 314 317 318 317 316 316 316 317 316 318 321 322 324 326 326 327 327 327 328 328 327 327 326
278 281 284 287 289 290 291 293 295 295 295 295 295 296 296 297 296 296 297 297 298 298 299 305 311 311 311 310 309 308 308 308 307 307 308 306 306 305 302 297 293 294 296 293 299 305 302 293 296 301 303 306 308 308 310 309 307 302 302 311 312 308 311 315 317 315 314 314 315 315 315 315 318 321 322 322 324 325 326 326 326 327 327 325 325
278 282 285 286 287 289 290 292 293 295 295 294 294 293 293 294 295 295 295 297 297 298 299 302 311 311 311 310 309 308 307 306 307 307 307 307 307 307 305 302 297 292 294 294 297 302 302 299 295 296 298 302 303 304 303 306 309 301 301 305 305 309 309 312 314 314 313 312 312 313 313 313 315 317 318 319 319 318 319 320 321 321 321 321 321
278 281 281 284 287 288 288 290 291 294 293 292 292 292 292 293 293 294 295 297 297 298 299 300 307 311 311 309 309 309 307 307 307 306 306 306 307 307 307 305 303 298 294 294 296 300 299 305 301 296 294 295 298 298 303 303 305 301 303 301 302 307 307 309 312 312 312 311 310 311 311 312 313 314 314 315 316 317 318 319 319 319 320 320 321
277 279 281 283 285 285 286 287 288 291 292 292 292 292 292 292 293 293 295 296 297 298 299 301 305 310 310 309 309 308 307 306 306 305 305 306 306 307 307 307 306 302 299 297 296 300 299 297 301 297 290 293 293 294 298 299 300 302 301 300 298 299 304 306 309 309 310 310 310 310 310 310 312 312 312 313 315 316 317 317 317 318 319 319 321
276 277 278 279 281 283 283 284 286 288 291 292 291 291 291 291 292 293 294 295 297 297 299 301 304 309 309 308 308 308 307 306 305 304 305 305 306 306 306 306 305 305 302 301 296 295 300 299 295 293 296 292 292 293 294 295 297 300 298 298 298 297 300 303 305 308 308 308 309 309 309 310 311 311 311 312 313 315 316 316 316 316 318 318 320
275 276 277 278 279 280 281 283 284 286 289 291 291 291 291 291 291 292 293 294 295 296 298 300 303 309 309 308 307 308 307 306 305 304 304 305 306 306 305 305 305 305 305 303 300 297 298 302 298 294 295 293 292 293 291 290 295 295 296 296 297 296 296 300 302 304 306 307 308 308 308 309 311 311 311 311 314 314 315 314 315 316 316 317 319
275 276 276 277 278 279 280 282 283 285 287 289 291 290 290 290 291 291 292 293 294 295 297 298 302 308 308 308 307 307 307 305 304 304 304 304 305 306 305 305 305 304 305 302 299 295 293 292 295 294 293 293 291 292 291 291 290 291 293 293 294 295 296 298 299 300 303 305 307 308 309 309 310 311 311 311 312 313 313 314 314 313 314 317 317
275 275 275 277 278 279 280 281 282 284 285 288 290 290 290 290 290 291 291 292 293 294 296 297 300 307 307 306 307 307 307 306 305 303 304 304 304 304 304 305 304 303 304 303 299 295 293 289 289 292 292 295 293 291 293 292 291 291 291 291 293 294 295 294 297 300 302 304 306 308 308 309 310 310 310 311 311 312 312 313 311 311 312 314 313
274 275 275 276 277 278 279 279 281 283 285 287 290 290 290 289 289 290 291 291 292 293 295 296 298 305 306 305 306 306 306 305 304 304 303 303 304 304 303 304 303 303 301 301 298 295 293 291 290 290 291 292 293 291 291 292 292 292 292 292 293 292 292 293 296 297 302 305 307 308 308 309 310 310 310 310 310 310 311 311 310 310 311 311 311
273 274 275 275 276 277 278 278 279 281 282 285 288 289 289 289 289 289 290 290 292 293 294 296 298 303 305 305 305 305 305 305 303 302 303 303 303 303 303 303 303 301 300 298 300 297 295 291 289 291 291 292 289 290 291 290 292 292 292 291 291 291 291 292 294 297 301 305 306 307 307 308 309 309 309 309 309 309 309 309 309 309 309 308 308
273 273 273 273 274 274 276 277 278 279 281 283 286 288 289 289 289 289 289 290 291 292 294 295 296 301 305 304 305 305 305 304 302 302 302 301 303 303 303 303 302 301 300 299 298 298 295 293 290 289 291 290 289 290 291 291 290 290 291 291 292 292 291 290 291 296 299 304 304 305 306 307 308 309 309 309 309 309 309 308 308 308 307 307 306
271 272 272 272 273 274 276 277 277 278 279 281 283 286 288 288 288 288 289 289 290 291 293 294 296 299 304 305 304 304 304 304 302 303 302 302 303 303 303 302 301 300 299 297 296 296 296 294 291 288 290 290 289 290 290 292 292 290 289 289 289 289 291 293 291 294 296 301 301 303 303 304 305 307 308 308 308 308 308 307 307 306 304 304 304
271 271 272 272 273 273 274 275 276 277 278 279 281 284 287 288 288 288 288 288 289 291 292 294 296 298 303 305 304 304 304 304 303 302 302 302 303 302 302 302 301 299 298 296 295 295 294 292 291 291 290 290 291 289 290 292 293 293 291 290 290 289 291 294 292 292 294 296 298 301 302 301 303 304 305 306 307 307 306 306 306 305 302 302 303
270 270 270 271 271 272 273 273 275 276 277 278 279 282 286 287 287 287 288 288 289 290 291 293 295 297 300 305 304 304 304 305 304 304 303 303 303 302 303 302 300 298 296 294 294 293 292 291 291 290 291 290 289 290 290 291 291 290 292 292 291 290 291 292 294 294 292 293 294 296 298 299 301 303 304 305 305 305 305 304 303 302 300 302 302
270 270 270 271 271 271 272 273 274 275 276 277 279 280 282 286 287 287 288 288 288 288 289 291 294 296 299 304 304 304 302 300 299 300 301 301 303 300 301 301 298 296 295 294 294 293 292 291 290 290 290 290 290 289 289 290 291 291 291 290 291 291 292 292 291 292 293 294 292 292 292 294 295 296 298 299 302 302 301 301 301 298 299 302 302
270 270 270 270 270 270 270 271 273 275 276 277 279 281 282 282 285 287 287 287 288 288 288 289 291 293 297 304 303 298 297 296 296 297 299 299 299 302 302 299 297 295 295 294 294 293 292 291 290 289 289 290 289 290 290 291 291 291 291 292 291 290 290 289 289 288 289 293 293 292 292 291 295 292 292 297 295 297 298 298 298 298 299 302 302
268 269 269 269 270 271 271 272 273 275 276 277 280 282 283 285 284 285 287 288 288 288 288 288 289 291 294 302 305 299 296 295 296 296 298 298 298 298 298 298 298 296 294 294 294 293 292 292 291 290 290 290 289 290 290 291 291 292 292 292 290 290 290 290 288 288 288 291 293 293 291 289 292 293 292 294 294 294 295 296 299 298 300 302 302
268 268 268 269 269 269 270 270 271 272 274 278 281 282 283 284 285 284 286 287 288 287 287 288 289 291 293 299 304 302 300 299 299 299 298 297 297 297 298 297 297 297 297 296 294 293 293 292 290 291 291 290 290 290 291 291 291 292 292 291 290 290 290 291 291 291 292 291 293 293 292 289 288 292 291 292 292 293 294 297 299 299 301 302 301
267 267 267 268 268 269 269 269 270 272 274 278 280 281 282 284 285 285 286 287 287 287 287 287 288 290 291 295 302 302 302 295 296 300 300 298 296 296 296 296 296 296 297 297 297 295 294 293 291 291 291 291 289 290 292 292 292 291 290 290 290 290 291 291 292 292 291 291 293 292 291 288 287 290 292 290 289 289 291 297 299 300 301 301 301
266 266 267 267 267 268 268 269 270 271 274 278 281 281 282 283 284 285 285 287 287 287 287 287 288 289 290 292 299 301 301 297 299 300 300 298 297 296 296 297 297 295 296 296 295 294 294 293 292 291 292 292 291 292 292 292 291 290 290 290 289 290 290 291 292 294 292 292 294 292 291 289 286 288 289 287 286 287 288 294 298 299 300 300 300
266 266 266 267 267 268 269 269 270 272 275 279 281 281 282 283 284 284 284 286 287 287 287 288 288 289 290 292 297 300 300 298 299 299 299 297 295 293 293 294 295 296 297 297 297 296 296 295 293 293 293 293 294 294 293 293 292 292 292 291 290 291 290 287 287 287 289 291 292 293 291 289 286 288 288 287 286 287 286 294 298 298 300 300 300
266 267 267 267 267 268 269 269 269 269 272 279 281 281 282 283 284 282 284 286 287 287 287 288 288 289 290 292 295 300 300 299 297 297 297 297 294 292 292 293 293 295 296 296 296 296 297 297 296 295 294 294 294 293 292 292 292 290 290 289 289 288 288 289 287 286 288 289 290 292 290 288 287 288 288 285 285 285 285 287 296 298 299 299 299
265 266 267 267 268 268 269 269 269 271 274 278 281 282 282 283 283 282 283 285 286 286 287 288 289 289 290 292 295 301 301 299 296 297 297 296 293 292 292 292 292 293 294 296 295 296 296 296 296 295 295 295 296 296 295 295 291 291 290 289 288 289 288 286 283 285 287 288 287 288 287 287 286 287 282 282 285 286 285 285 288 296 298 299 299
265 266 267 267 268 269 269 269 269 270 272 276 280 281 281 282 282 282 283 284 285 286 286 287 288 289 290 290 292 299 301 300 297 297 297 295 293 292 292 292 291 292 292 294 294 294 295 295 295 295 295 295 295 295 295 295 294 292 290 289 288 289 288 287 285 285 286 287 287 285 284 284 285 282 279 278 281 279 283 284 286 290 296 297 298
266 267 267 267 268 268 269 270 273 272 272 275 279 280 282 283 283 282 284 284 284 285 286 286 288 289 290 291 292 295 301 299 297 298 297 295 294 293 293 292 291 291 292 292 292 291 291 290 292 292 291 293 293 293 292 294 293 291 292 291 290 289 288 287 286 284 283 285 287 286 286 282 284 282 283 279 279 279 279 284 285 286 290 292 294
Wind_Speed
10 11 10 10 10 9 9 10 10 10 9 10 10 9 9 8 8 9 8 8 8 8 8 9 9 9 11 13 13 13 13 11 10 10 8 7 7 11 18 18 18 18 20 25 26 28 29 28 28 31 32 32 32 29 30 30 30 29 29 29 29 29 27 25 22 23 24 23 24 24 24 23 23 22 22 21 21 21 21 20 20 20 19 19 19
11 10 11 12 11 10 9 9 10 8 8 10 10 10 10 9 9 9 9 9 9 8 8 9 10 10 10 11 12 11 11 12 11 8 7 8 7 7 16 17 15 16 20 23 27 28 26 27 28 27 28 31 31 32 33 32 30 30 28 28 29 28 27 25 23 23 24 26 25 24 23 22 23 23 23 22 21 21 20 20 21 20 21 20 19
11 12 12 12 12 11 11 9 9 10 10 10 8 10 10 11 11 11 10 10 9 8 8 7 7 7 7 9 8 5 4 4 6 7 9 7 7 7 8 14 16 15 14 17 24 26 25 26 28 31 32 31 33 33 32 30 30 30 29 28 27 29 27 26 25 23 23 24 23 22 23 23 23 23 23 23 23 21 21 20 20 20 20 20 20
14 13 13 13 13 12 12 10 10 9 9 9 9 10 10 10 12 11 10 9 8 8 8 7 8 8 8 8 7 10 10 8 6 7 8 8 9 7 6 6 9 10 10 12 21 23 24 26 28 32 33 33 33 33 33 32 31 30 29 29 30 30 28 26 25 23 23 24 24 23 23 24 24 23 23 24 22 22 22 21 20 20 20 21 21
13 13 13 13 13 14 12 11 11 10 10 11 12 10 9 8 8 8 7 7 8 8 8 8 10 9 9 11 10 10 7 8 9 7 7 8 8 8 7 6 5 7 10 11 11 21 23 25 27 28 36 35 34 33 31 31 32 31 30 30 30 30 28 26 24 24 25 25 24 25 25 24 23 23 23 23 22 21 21 21 21 21 22 21 20
11 13 12 12 13 13 13 13 11 12 11 11 11 10 9 10 10 10 10 10 11 10 9 9 6 6 10 10 8 8 7 7 8 8 8 7 6 7 7 6 5 4 6 11 11 14 19 27 31 30 29 32 33 34 33 32 31 31 31 31 30 29 28 28 27 26 26 26 25 25 25 25 24 24 24 23 22 22 22 23 22 22 23 21 21
11 11 12 12 13 13 13 13 13 13 12 11 10 9 11 12 10 11 10 10 11 11 11 10 10 9 6 7 8 7 7 8 6 7 8 7 7 6 7 6 5 4 5 5 9 13 18 22 29 34 33 33 32 31 30 29 30 31 31 31 30 29 28 28 29 29 28 27 27 25 25 25 25 25 24 24 23 23 23 23 23 22 22 22 21
11 10 10 11 12 13 12 13 15 13 14 13 11 10 10 12 14 14 12 12 12 11 10 10 10 11 9 8 8 9 7 6 8 5 6 6 5 6 7 7 8 6 5 4 5 8 12 19 18 18 29 30 29 30 34 34 32 31 30 30 30 30 29 29 28 29 28 28 26 26 25 25 25 25 24 24 23 22 23 23 23 23 23 22 21
11 10 10 11 11 12 12 13 13 13 12 13 12 8 10 11 11 13 15 14 13 14 11 11 10 11 10 9 9 9 9 8 6 6 4 6 6 5 6 6 6 8 5 5 5 6 11 11 13 15 22 25 30 30 30 29 31 33 31 30 31 30 29 27 28 28 28 28 28 27 26 26 26 25 24 24 24 23 24 23 22 22 22 22 21
10 9 9 10 10 12 13 14 12 12 12 14 15 12 13 13 13 13 14 13 13 14 13 11 10 10 9 10 9 7 7 8 8 6 6 4 5 6 6 5 7 6 6 4 3 6 7 12 16 13 5 18 24 27 30 31 32 32 32 32 30 29 28 27 27 28 27 28 28 27 26 26 25 26 25 24 25 25 24 23 24 23 24 23 22
10 9 8 9 10 11 12 14 12 11 12 13 15 14 14 16 16 15 14 14 15 15 15 13 12 11 10 11 10 9 7 6 8 7 7 7 4 6 5 6 7 6 7 6 5 5 7 10 9 9 10 8 17 22 27 33 29 30 32 32 32 30 29 28 29 28 28 28 27 27 26 26 26 25 26 27 25 26 24 25 24 23 23 23 23
10 8 7 8 9 10 12 13 13 12 12 13 15 15 17 17 19 22 17 13 12 14 14 13 11 12 10 8 8 9 8 8 8 8 7 7 7 6 6 4 6 7 5 7 6 7 5 8 11 11 9 12 17 18 23 23 24 28 28 30 31 31 30 28 28 27 28 29 27 25 27 25 24 26 27 27 25 26 26 23 23 23 23 22 22
10 8 8 8 8 9 11 12 13 12 12 13 14 18 16 15 14 12 17 16 11 9 13 15 13 8 7 7 6 5 8 9 9 8 8 7 5 7 6 5 5 6 6 5 7 9 8 4 8 12 11 8 10 18 19 17 19 25 29 30 30 31 30 30 28 28 27 27 26 25 26 26 25 26 26 25 26 26 24 24 24 24 23 23 22
10 8 8 7 8 9 9 11 12 12 12 13 12 13 19 17 14 16 19 20 15 16 14 12 13 16 13 7 4 4 4 7 8 7 8 7 6 7 8 8 7 6 6 5 6 9 10 10 5 7 12 12 8 9 10 12 16 23 27 29 31 31 29 30 29 29 26 25 27 27 28 27 26 26 28 26 26 26 25 24 24 24 22 22 21
11 9 9 8 8 8 9 9 11 12 12 13 11 14 18 19 18 15 10 12 14 16 18 19 14 13 13 12 7 5 1 3 2 5 8 8 7 8 8 8 9 7 8 6 6 7 9 11 10 7 7 8 8 7 9 11 13 20 21 23 27 30 31 30 29 27 26 26 27 26 26 27 26 26 26 26 25 26 25 24 23 22 21 21 20
11 11 10 9 8 8 8 8 10 11 11 11 10 12 17 18 19 17 20 16 11 10 16 18 15 16 12 13 14 14 9 8 8 2 2 7 8 7 7 8 10 9 7 9 7 9 8 11 13 11 9 7 7 8 9 8 14 17 17 18 21 27 30 30 29 29 28 29 27 27 27 26 26 26 26 25 25 24 24 24 23 22 21 20 19
13 13 11 10 8 8 7 8 9 11 10 10 9 9 13 15 20 19 14 15 14 12 15 17 18 21 17 10 5 7 13 14 11 0 1 7 7 9 8 10 10 11 10 9 7 7 10 11 13 12 12 8 8 8 10 10 12 13 15 16 19 22 26 29 29 30 30 29 29 28 28 27 27 26 26 25 25 25 25 24 22 21 20 20 19
14 12 11 10 10 8 7 7 8 10 9 9 8 8 10 14 15 19 22 21 18 15 14 15 17 19 17 19 20 17 16 11 15 8 0 1 3 6 10 11 11 11 11 11 12 10 9 12 12 14 15 11 10 9 10 10 10 10 11 13 21 22 22 26 31 30 29 30 31 31 28 27 26 26 27 26 26 24 23 23 21 20 20 19 18
17 14 12 12 10 8 7 7 7 8 10 8 9 9 9 11 13 15 20 12 14 17 18 16 13 16 14 10 3 3 15 21 15 10 10 3 3 7 8 9 12 13 12 14 14 13 11 11 13 13 14 13 11 11 9 10 13 14 16 17 16 19 20 23 26 29 30 31 31 30 29 29 28 29 27 25 24 23 23 22 21 21 19 18 18
18 15 13 12 11 9 8 7 6 6 9 8 8 8 9 10 11 14 17 17 12 15 17 17 17 14 16 13 5 6 16 18 21 24 20 15 8 1 1 7 8 12 13 14 14 14 14 12 13 12 11 13 11 11 11 10 10 11 13 21 19 21 21 20 22 23 25 28 30 32 31 30 29 28 26 25 24 23 22 21 20 19 18 18 16
18 17 15 14 12 10 8 7 5 5 7 8 7 7 9 11 11 12 15 17 18 17 17 17 17 18 13 12 8 10 13 11 6 4 11 18 14 15 13 5 8 8 10 13 13 12 13 14 13 13 12 13 13 13 12 10 9 11 13 20 21 21 20 20 21 22 23 25 27 29 30 29 28 27 26 24 23 23 22 20 20 19 18 18 17
17 17 16 16 14 10 8 7 6 5 6 7 7 7 9 10 10 10 15 18 18 14 18 17 18 16 19 16 13 12 14 9 7 13 11 16 17 15 15 16 15 9 6 12 13 13 11 12 13 12 12 14 13 13 15 13 11 11 14 21 21 20 20 20 22 22 23 23 24 25 28 28 26 25 24 25 24 23 22 21 20 20 19 19 20
16 16 15 15 15 11 9 8 7 5 6 7 6 6 8 9 9 10 11 17 17 20 14 20 18 18 20 16 18 19 20 19 18 17 16 12 10 16 15 15 17 14 8 6 12 11 12 10 12 11 11 11 12 11 12 14 15 15 21 22 22 20 20 21 21 21 22 23 23 23 23 24 25 25 26 25 24 23 22 22 21 21 21 21 21
18 18 16 16 14 11 9 8 7 6 6 6 6 6 6 8 9 8 9 12 15 19 17 15 19 16 19 15 14 14 17 18 18 17 15 15 15 15 14 10 6 3 2 1 4 13 11 13 12 12 12 11 11 10 10 12 14 22 19 23 23 22 21 21 21 21 21 21 21 21 21 21 21 21 23 24 23 22 22 22 23 23 22 22 22
17 17 17 17 14 14 12 10 8 7 7 5 6 6 5 7 9 11 11 12 12 15 18 18 21 17 18 15 15 15 14 13 14 16 14 13 15 16 13 17 16 7 2 3 2 1 7 11 12 11 11 12 12 11 10 10 10 17 20 19 24 21 21 22 21 21 21 20 20 20 20 19 17 17 18 20 22 23 23 22 22 23 23 22 21
19 19 18 16 13 14 15 15 11 7 6 6 5 6 5 6 8 11 12 11 11 15 18 21 19 22 18 17 16 13 14 13 15 14 15 15 15 18 15 6 12 14 6 5 3 7 1 4 8 10 10 11 12 11 11 11 11 18 20 16 20 21 21 21 21 20 19 18 17 17 17 16 15 15 17 20 21 23 24 25 24 23 22 21 20
18 18 19 17 15 14 15 17 16 10 7 6 6 5 5 6 7 10 10 10 11 13 16 21 20 22 20 18 17 15 13 12 13 15 15 17 18 17 17 16 6 6 9 3 8 14 10 1 2 5 10 11 11 11 11 10 14 19 19 15 13 22 21 22 21 20 19 18 17 17 17 16 15 18 18 18 20 22 23 21 21 21 20 21 20
17 18 16 14 16 14 14 15 17 14 9 7 6 6 5 5 6 8 11 8 11 13 16 19 19 21 20 19 16 16 14 14 15 16 15 15 15 17 19 21 19 10 5 6 8 9 11 9 0 2 7 10 10 10 11 14 13 19 19 11 11 15 21 21 21 20 18 17 16 16 16 16 16 17 19 20 21 19 18 17 18 17 17 17 16
16 17 17 16 15 13 14 15 17 15 11 8 7 6 5 5 5 8 11 10 11 13 13 15 18 20 19 20 18 16 14 15 14 14 14 13 14 17 18 21 21 20 14 13 12 12 9 12 12 4 3 4 9 7 11 10 14 16 10 11 12 12 19 22 20 19 19 17 16 15 16 16 17 18 19 19 18 17 17 17 16 17 16 16 16
17 17 15 17 14 15 12 14 15 15 12 10 8 7 6 5 6 7 9 11 12 12 12 13 17 17 18 18 17 17 15 14 15 16 15 15 15 16 16 17 19 21 18 18 12 8 11 4 6 9 4 6 6 7 8 9 15 17 11 11 10 8 21 21 20 18 16 17 15 15 15 15 16 17 17 17 16 17 17 17 16 16 15 17 16
15 12 16 15 14 14 12 13 13 16 14 12 10 8 7 6 6 7 8 10 12 13 12 12 14 17 19 20 17 16 14 14 14 14 15 15 15 15 15 13 15 20 17 15 13 4 7 13 3 3 12 7 7 7 6 7 13 15 12 10 11 9 16 17 19 17 15 16 15 15 14 14 15 16 16 17 16 15 16 17 17 17 16 17 17
13 14 14 15 14 15 15 13 13 14 14 13 11 9 8 7 7 7 7 10 13 13 12 11 13 15 20 21 20 18 17 15 14 14 16 16 17 16 14 14 15 16 18 16 18 15 8 11 10 8 10 13 10 10 7 5 9 16 11 11 11 15 8 10 16 19 18 16 15 15 15 15 15 16 17 17 16 15 16 17 17 17 17 16 17
12 15 14 14 17 16 13 13 11 13 14 15 12 10 8 8 7 7 8 10 12 12 10 12 14 16 16 21 21 19 17 16 14 14 15 16 15 15 15 15 14 12 15 15 15 10 4 3 8 10 10 12 9 9 10 9 6 5 8 8 9 9 9 8 8 13 16 15 14 14 15 15 15 16 17 18 16 16 18 19 19 19 19 19 19
12 12 15 14 14 12 14 12 14 13 14 15 14 10 9 8 8 7 7 9 12 12 10 12 14 14 17 17 20 19 18 18 16 16 16 16 16 15 14 15 14 14 14 15 13 16 11 3 5 3 9 12 12 7 15 13 9 6 7 5 6 9 8 6 7 8 12 13 14 14 15 16 17 17 18 18 18 19 19 20 20 20 20 19 19
14 13 13 14 14 15 12 13 14 13 14 13 13 10 9 9 9 8 7 9 11 12 11 12 14 14 15 17 18 18 17 18 17 17 16 17 16 17 17 15 15 14 12 13 15 14 17 10 8 11 10 9 12 11 7 9 10 9 10 8 8 5 5 7 8 6 11 13 14 14 15 16 17 18 19 19 20 20 21 21 21 21 21 20 20
15 12 13 12 14 15 14 14 12 14 14 14 13 12 11 9 9 9 8 9 10 11 11 12 13 15 15 18 18 18 19 19 19 17 16 17 17 17 18 15 16 16 14 11 16 16 14 15 7 13 11 12 4 5 8 6 10 9 7 6 5 6 5 5 7 8 9 14 15 16 16 17 18 19 20 20 21 21 21 22 22 22 21 21 20
12 13 12 13 14 18 16 13 13 13 13 16 15 13 10 9 9 9 9 9 9 11 11 12 13 15 14 16 20 21 20 21 18 18 17 20 18 18 18 16 16 16 13 13 12 14 16 17 12 5 7 4 4 9 10 13 5 5 5 6 6 7 5 3 4 5 8 13 14 16 16 18 19 20 20 21 22 22 22 22 22 22 22 21 21
13 13 13 14 10 15 13 14 13 13 14 13 15 14 14 11 9 8 8 9 9 10 11 11 12 14 14 17 18 19 21 22 20 19 20 22 19 18 19 17 15 14 16 13 13 14 17 15 16 10 7 10 8 7 9 11 14 8 6 6 4 4 5 6 3 4 4 7 7 8 12 15 19 21 22 22 23 23 23 22 22 22 22 22 21
15 13 12 13 11 13 14 14 13 14 17 14 14 13 15 12 10 9 9 9 9 9 11 11 11 13 14 13 16 20 19 21 22 21 21 21 18 20 19 19 17 17 16 15 15 15 14 15 13 17 14 6 12 12 6 8 11 13 13 9 5 2 3 8 6 2 4 5 4 8 11 12 15 15 19 22 23 23 23 22 22 23 22 22 22
18 19 19 20 18 13 13 15 15 14 13 15 14 16 13 11 10 9 9 8 9 9 10 11 11 11 14 13 15 17 21 19 21 21 21 20 18 18 16 16 17 18 16 14 15 15 14 13 14 13 14 15 5 5 8 9 9 5 8 12 14 9 7 5 7 10 4 6 7 5 5 8 11 15 19 20 21 22 22 21 23 22 23 23 22
18 17 16 18 21 21 17 14 14 14 13 12 10 12 12 14 10 10 10 9 9 10 11 12 11 11 13 16 14 19 21 23 26 24 23 22 18 17 16 17 18 18 17 16 16 15 15 15 12 12 11 12 14 14 13 14 17 16 8 4 8 9 9 9 5 4 8 9 6 6 6 8 8 7 8 8 12 17 18 20 18 23 23 22 22
15 14 17 19 20 21 21 18 13 11 12 9 15 25 21 16 13 11 10 9 9 9 9 11 12 12 14 18 18 23 24 25 26 27 28 26 25 21 18 17 18 18 18 18 17 16 17 17 17 15 16 16 15 17 17 13 9 10 11 12 12 9 7 4 3 1 2 9 9 9 6 5 9 7 6 9 8 11 10 11 12 14 19 22 22
17 16 19 19 18 17 18 18 18 14 11 11 21 22 24 25 18 14 12 10 9 9 8 9 11 12 14 16 19 23 23 23 23 28 28 28 27 27 28 26 23 22 20 20 18 18 17 17 16 16 16 16 15 14 14 14 13 16 15 12 11 11 12 13 10 1 2 6 9 9 7 4 6 11 8 9 9 8 9 11 17 20 22 22 22
15 16 18 19 18 18 17 18 19 18 16 19 24 24 25 26 23 16 12 12 11 9 9 9 9 10 13 15 15 17 18 19 18 21 25 28 28 28 29 30 29 30 30 26 23 19 19 17 17 18 17 17 16 14 13 15 15 13 13 13 14 16 14 13 12 13 10 10 11 11 11 4 3 8 9 9 9 9 10 11 20 21 23 23 22
17 18 18 18 18 16 17 19 19 18 17 23 26 26 24 24 25 22 13 13 12 10 9 9 10 11 11 14 13 15 18 26 20 19 19 21 24 28 28 28 28 28 28 29 29 25 21 20 19 16 17 17 17 16 17 17 14 15 12 11 12 13 15 16 14 10 10 12 10 10 11 7 5 9 11 9 6 5 7 10 20 21 22 22 22
16 16 16 18 19 19 18 18 18 18 19 20 24 24 23 24 25 22 14 14 12 11 10 10 10 11 11 13 12 14 15 18 18 19 19 18 17 18 19 19 19 23 26 28 27 25 22 19 20 20 15 18 19 17 16 16 18 17 18 17 14 12 13 16 14 13 11 13 16 12 9 10 6 7 9 6 5 5 6 9 18 20 21 21 21
15 14 13 15 16 15 16 15 16 18 16 23 25 25 25 25 26 22 15 13 12 11 10 9 11 12 12 13 14 14 18 18 17 20 19 18 17 16 17 17 18 19 18 19 20 19 19 16 18 18 17 16 17 18 16 16 21 18 18 19 20 18 11 6 7 4 8 11 10 13 15 10 5 8 8 7 6 6 5 8 13 17 21 21 22
15 14 14 14 16 16 16 17 17 18 19 26 26 26 25 24 25 15 14 13 12 11 10 10 11 11 11 12 14 13 17 20 23 28 24 19 18 19 19 17 15 16 17 19 23 22 20 18 17 18 18 18 18 21 21 18 13 9 9 8 8 9 12 12 11 7 10 10 8 11 8 11 10 12 9 5 5 7 6 6 13 17 20 22 22
16 16 14 14 14 14 16 16 17 18 17 22 25 25 24 25 20 13 13 12 11 11 11 11 11 11 11 12 13 13 16 19 25 28 27 25 19 21 19 18 16 15 14 13 18 22 22 21 22 25 25 27 26 27 28 27 19 16 14 14 14 13 12 11 6 8 10 11 8 7 7 11 9 8 6 4 7 7 7 7 6 16 21 21 22
15 15 15 13 13 14 16 16 17 17 18 19 24 25 27 27 22 15 12 12 11 11 10 11 10 11 13 19 18 14 16 19 26 29 29 25 21 21 20 19 18 16 14 13 11 11 17 20 22 23 25 26 27 26 26 25 25 21 20 20 18 15 16 15 15 12 9 10 11 7 8 7 9 5 6 3 2 2 5 5 7 9 16 17 21
15 13 13 13 13 13 15 17 23 21 17 19 26 27 27 25 20 14 13 11 12 12 10 11 10 10 12 14 20 18 17 21 30 29 31 26 21 21 21 20 20 20 18 17 16 14 10 8 10 13 14 20 19 19 22 31 31 27 22 20 17 19 18 15 12 10 8 10 9 10 10 7 13 8 10 6 6 4 3 7 7 8 9 10 13
Wind_Direction
305 304 301 292 284 272 261 258 243 223 206 210 206 207 208 205 208 209 205 207 206 206 200 199 196 196 194 191 195 194 190 185 185 175 170 176 195 194 187 192 197 190 189 188 186 189 190 185 189 181 174 168 167 160 156 155 155 155 153 153 152 150 148 148 148 148 145 142 140 140 143 143 136 136 139 140 139 138 136 136 134 133 129 128 126
308 305 302 298 291 280 266 259 261 254 230 213 206 205 204 200 205 207 202 203 199 196 193 196 193 191 192 195 197 195 187 182 181 168 169 166 174 190 185 183 188 191 190 191 188 187 187 192 186 183 169 164 166 163 156 155 155 158 157 154 153 152 150 145 144 144 140 142 142 141 143 146 140 141 143 142 141 139 139 139 137 134 133 131 128
318 316 312 305 298 291 281 270 258 247 234 231 208 209 203 199 197 200 201 199 196 181 188 187 182 174 185 196 183 142 154 175 163 160 161 159 163 169 179 178 181 184 197 196 189 186 185 188 184 180 177 166 165 162 156 155 157 158 156 155 153 153 149 147 146 147 149 145 141 143 145 144 143 143 145 144 142 141 139 139 137 136 134 129 127
322 319 316 311 305 299 292 278 267 264 250 238 232 217 206 203 201 200 198 193 185 181 177 169 173 172 160 164 169 171 176 164 164 170 162 163 158 159 164 163 156 160 175 199 192 190 191 182 185 170 169 164 162 160 159 158 160 158 157 156 153 153 152 152 152 152 146 143 146 146 144 147 148 149 147 142 138 141 142 141 139 136 132 130 130
316 316 316 312 308 304 296 283 274 263 257 244 225 216 211 201 201 189 185 185 178 180 175 180 177 175 172 173 167 171 165 158 156 164 170 167 160 155 156 161 155 154 168 181 192 192 201 190 188 180 165 164 163 158 160 162 162 163 161 155 154 153 152 151 148 143 143 146 147 147 149 150 150 149 144 143 139 143 142 144 141 136 134 138 136
317 320 316 312 309 304 298 293 280 266 251 250 243 230 201 195 191 183 184 180 183 179 176 177 170 179 178 168 168 160 154 159 155 162 166 166 157 157 147 150 146 146 174 192 186 200 201 201 182 180 168 163 164 162 162 164 162 162 160 157 159 158 157 153 147 144 143 148 147 149 150 151 150 148 146 144 144 144 143 142 139 139 140 139 132
316 315 316 317 315 311 306 299 290 275 260 243 243 238 205 195 184 189 183 185 183 180 180 178 170 170 170 162 159 151 152 148 146 164 167 152 148 153 134 132 125 141 163 178 193 207 198 194 198 170 169 167 162 159 159 165 168 163 163 159 154 155 156 154 152 149 147 150 150 149 151 151 151 149 149 148 148 148 144 139 143 143 141 138 134
309 313 313 315 312 308 306 305 301 288 265 249 235 227 217 201 192 183 181 187 179 181 179 178 177 176 168 170 167 160 155 152 145 161 151 134 151 143 140 148 147 154 156 157 180 215 209 186 190 192 163 160 160 168 167 166 166 161 162 161 162 158 155 156 156 155 155 153 152 151 154 155 155 152 150 151 150 149 144 143 145 143 141 139 137
302 306 310 311 309 306 305 303 302 296 285 265 244 230 227 215 192 191 187 179 182 177 180 179 179 178 170 171 169 167 161 155 149 141 137 152 148 140 138 148 141 142 156 164 168 171 209 192 193 199 178 167 169 170 164 165 165 156 164 165 163 161 156 157 159 159 158 156 155 155 156 156 152 152 153 152 151 149 147 146 144 142 141 139 138
292 298 300 302 303 304 304 301 299 296 290 274 254 229 219 216 207 199 192 182 183 177 177 172 172 171 173 170 167 166 167 159 154 149 138 145 146 146 153 145 140 144 145 155 145 160 175 181 162 164 176 181 166 163 164 165 164 159 161 162 160 160 160 160 159 157 156 156 156 158 155 150 151 152 153 153 152 151 149 147 145 143 141 140 139
285 286 293 299 302 304 304 301 299 297 296 294 270 239 220 214 207 199 196 192 180 179 172 168 165 166 170 170 163 161 159 163 150 157 149 146 158 142 143 154 142 156 148 144 153 147 161 161 151 145 158 219 170 166 164 164 165 160 159 158 159 160 161 162 159 157 158 159 158 154 151 154 155 155 154 155 154 151 150 147 145 144 142 141 139
277 277 282 290 298 300 302 302 299 298 300 300 290 256 227 225 214 188 186 191 194 177 168 163 160 161 155 148 153 149 154 158 158 158 147 147 157 156 145 152 145 147 152 149 145 137 143 170 154 146 145 161 167 166 165 159 155 156 160 160 158 160 160 161 161 162 162 158 152 153 156 156 156 157 157 156 155 153 150 148 147 147 145 144 143
273 269 274 285 288 293 298 300 299 298 297 294 297 285 252 220 214 210 183 185 189 187 176 156 146 131 136 118 104 133 148 151 156 156 158 149 157 154 145 142 148 152 152 156 151 142 133 121 144 143 140 131 164 159 160 154 152 157 160 160 160 160 161 163 163 161 160 155 156 155 157 158 158 159 158 157 156 154 152 151 150 149 147 146 145
268 263 268 272 284 290 294 298 298 295 293 292 294 302 285 240 220 203 187 183 184 178 174 158 160 158 154 142 91 84 108 138 146 156 151 156 155 155 151 151 156 153 139 157 154 147 143 134 112 130 135 142 163 152 148 150 156 162 165 163 162 162 161 162 160 160 160 157 160 160 159 159 159 158 158 157 156 155 153 151 151 149 148 148 147
265 265 267 271 270 281 286 289 292 291 291 295 305 307 299 280 227 206 202 193 179 179 172 174 168 166 148 132 149 132 55 99 84 154 158 154 157 159 158 159 156 155 152 152 157 150 147 138 134 125 119 127 134 147 148 152 154 159 160 163 164 162 161 163 165 165 164 162 161 159 160 161 160 159 159 157 156 155 154 154 153 152 151 148 148
270 267 265 263 264 270 280 285 287 287 287 289 295 292 289 293 280 235 189 173 186 181 181 182 164 148 163 179 172 166 155 188 172 179 142 142 153 161 161 161 158 153 153 155 167 154 152 144 138 138 132 129 133 139 142 144 153 150 158 163 163 163 161 163 165 165 165 164 163 161 161 164 163 160 159 158 157 157 156 156 155 152 152 152 151
275 267 258 260 260 260 266 277 282 284 280 280 290 281 286 286 289 265 225 182 176 181 186 188 177 175 160 149 111 165 189 175 155 3 153 141 173 171 167 162 162 159 160 160 157 160 152 151 145 144 136 140 140 146 146 148 152 158 159 161 161 164 163 163 167 167 167 165 166 164 165 165 163 162 161 160 159 159 157 155 154 155 155 154 153
281 270 262 257 255 252 256 268 276 283 277 275 278 287 284 295 284 290 235 197 179 176 181 190 188 189 181 175 173 177 174 148 152 182 338 35 161 181 171 170 167 166 163 162 162 161 163 155 154 152 146 150 147 152 153 152 145 149 149 159 165 169 169 168 168 169 167 167 168 166 165 164 163 164 163 162 162 163 161 158 157 158 157 158 158
281 272 264 255 252 250 251 256 266 274 279 273 283 285 292 286 301 288 285 227 181 177 180 180 188 195 191 191 26 56 151 147 175 142 160 208 180 180 181 182 173 171 169 167 166 162 165 161 155 154 150 148 150 149 150 152 152 151 157 159 168 164 166 173 171 171 168 169 169 166 166 165 164 164 164 165 166 166 162 161 161 160 159 159 161
296 281 266 256 250 247 245 248 254 265 274 273 275 284 286 292 289 291 292 278 215 188 184 179 182 190 190 182 156 121 164 178 170 163 167 171 188 187 62 174 182 177 174 167 168 168 162 164 156 155 155 150 151 149 151 156 157 158 160 165 170 168 173 178 172 170 170 171 170 167 166 165 165 166 167 168 168 167 165 165 163 160 161 161 159
297 298 284 267 253 241 241 247 242 253 263 273 273 280 281 286 290 295 285 280 241 195 187 186 185 181 183 182 150 155 166 175 164 187 158 158 175 170 174 175 178 184 177 170 170 169 167 163 158 160 160 154 156 155 153 157 161 163 165 166 163 170 174 175 171 172 171 173 169 166 165 166 167 169 171 170 169 167 167 167 165 162 161 158 155
302 297 294 282 264 246 238 240 236 237 252 256 270 277 281 274 276 280 293 288 284 228 191 186 188 186 185 175 168 156 159 161 168 166 175 177 166 179 173 166 173 187 179 170 170 167 167 160 156 161 164 159 158 161 156 160 164 165 167 165 164 170 174 174 173 174 172 170 167 166 167 169 171 170 171 171 170 169 168 169 166 164 160 156 152
303 298 292 287 272 249 238 238 231 226 236 252 254 267 274 277 274 278 278 290 288 287 231 190 187 185 188 186 176 171 170 177 179 180 170 175 173 167 169 182 173 156 191 181 163 167 161 162 158 161 162 162 155 161 162 158 163 166 166 166 166 172 175 174 174 173 171 170 167 167 169 173 173 171 172 172 172 171 171 170 166 164 159 156 151
303 304 306 306 295 273 254 247 238 222 230 231 252 252 269 277 279 274 279 281 284 289 261 212 191 186 189 185 189 184 181 180 174 171 171 173 164 166 163 151 104 82 42 15 178 162 166 165 166 162 162 157 155 158 161 156 163 164 166 168 169 172 175 173 173 172 171 171 169 169 172 173 174 174 174 175 175 172 172 168 166 164 160 162 156
301 295 295 302 305 299 285 265 248 226 224 224 241 256 262 276 277 281 277 275 281 279 276 225 190 190 190 187 190 186 188 183 171 172 171 161 158 155 168 163 158 141 125 153 129 6 162 169 164 167 161 159 157 159 163 161 160 165 165 170 169 172 172 171 172 173 173 173 171 172 172 174 175 174 174 176 175 171 168 165 166 164 162 161 160
301 296 295 300 301 302 298 284 267 244 225 224 229 245 257 263 276 279 277 278 277 281 277 251 202 189 185 184 190 190 186 177 172 168 162 160 165 161 151 154 152 154 138 152 184 135 287 189 174 164 161 159 158 161 164 161 159 163 162 165 169 168 168 168 169 172 173 171 170 171 168 172 171 169 170 176 173 169 168 166 164 163 162 161 163
295 295 292 292 300 303 301 295 281 261 240 229 225 234 246 260 269 274 275 274 276 280 278 268 214 191 184 186 185 187 186 177 170 173 171 173 164 160 148 138 117 130 150 130 163 179 154 36 132 170 166 161 160 164 165 164 161 163 157 161 166 166 166 166 166 167 167 166 166 169 170 173 179 176 175 173 168 168 168 165 165 166 167 168 167
294 291 298 305 300 298 300 297 289 271 253 240 228 225 236 253 267 274 276 270 273 271 276 276 237 197 187 182 182 187 183 179 172 176 177 172 164 159 161 152 149 151 141 151 173 175 154 150 36 201 176 162 166 162 166 160 160 167 160 157 161 166 165 166 167 167 167 166 166 169 169 177 186 186 181 176 180 176 166 165 170 170 172 171 162
293 299 300 293 294 298 303 304 301 280 261 254 243 231 226 240 257 274 278 277 268 266 268 270 260 207 188 182 181 184 185 179 175 171 171 169 167 167 168 162 161 155 162 169 191 161 191 171 160 205 180 167 158 163 159 168 165 162 159 156 161 167 168 166 168 171 169 168 168 172 175 178 186 187 180 176 173 169 167 168 170 168 171 163 160
292 293 292 293 299 300 300 304 303 294 276 265 256 245 239 241 250 261 270 275 268 267 263 265 261 226 191 180 182 182 181 184 175 168 170 170 169 173 175 173 164 160 163 167 179 176 164 210 175 155 174 178 157 165 167 163 164 159 158 160 163 170 167 164 169 173 171 167 171 178 179 181 184 185 177 175 172 171 171 170 164 163 161 158 159
288 291 293 297 296 298 301 302 302 299 289 273 262 256 248 250 252 261 267 269 268 267 270 269 265 225 194 180 177 181 179 179 177 170 167 168 171 174 175 169 171 161 162 163 154 222 172 173 178 162 160 162 162 149 151 156 163 159 157 160 160 175 172 164 169 173 175 169 174 176 180 184 184 183 179 179 171 166 166 162 160 157 158 157 157
286 284 287 291 297 300 300 298 295 295 293 280 265 257 252 249 254 266 272 274 274 274 279 278 270 232 193 182 179 180 176 176 174 173 172 173 172 173 172 172 176 167 159 159 168 171 187 177 156 145 164 152 152 151 148 144 168 160 158 162 161 168 178 163 175 172 174 178 177 176 180 182 185 183 182 179 173 162 156 154 153 152 152 152 149
282 285 288 293 294 293 294 295 293 294 293 287 273 259 254 254 256 261 274 278 279 280 282 287 280 233 205 182 179 178 172 172 176 175 173 172 172 173 171 171 169 164 160 159 162 142 114 83 146 157 161 146 144 156 148 150 154 156 150 153 151 160 174 169 175 179 174 179 180 179 180 181 183 183 181 176 167 159 155 153 150 148 148 150 150
290 290 289 287 288 291 294 296 296 292 290 287 276 260 258 260 263 263 274 282 284 286 288 289 284 241 194 188 180 175 174 175 174 174 173 172 171 170 172 169 169 169 169 154 155 153 154 98 98 111 151 165 147 174 159 158 166 151 145 140 152 157 165 167 166 183 184 179 183 183 181 181 182 182 178 171 162 158 155 151 149 147 148 149 150
287 284 289 290 292 293 291 291 294 292 290 288 281 270 265 266 270 275 277 282 286 288 290 288 286 257 206 183 182 177 174 175 175 175 172 173 173 172 173 172 166 165 162 154 147 157 157 158 150 151 166 167 162 173 166 157 151 155 145 153 159 163 164 164 168 175 185 182 183 184 182 182 181 178 174 167 161 158 155 151 150 148 148 148 148
290 291 291 294 296 295 292 291 290 293 295 292 287 275 268 267 275 281 284 286 286 288 287 288 287 263 219 188 182 179 173 177 175 173 174 176 175 175 172 171 164 163 160 153 158 154 160 144 178 169 169 160 121 122 127 124 144 147 147 134 129 147 151 160 163 169 182 182 181 181 181 180 178 175 171 165 161 159 156 153 151 150 149 149 150
290 294 294 292 290 291 288 288 289 290 293 296 294 287 275 273 275 282 284 286 287 286 286 284 283 274 222 196 181 178 178 175 175 173 176 178 178 174 173 171 167 162 160 152 153 149 154 161 152 156 156 131 120 145 150 140 125 104 122 135 151 146 135 126 141 162 172 180 179 179 178 177 174 172 168 164 162 160 158 155 153 152 152 152 152
285 282 283 286 281 285 286 287 286 288 291 292 290 288 282 278 275 274 279 282 285 286 284 281 278 278 245 194 183 179 177 175 174 177 176 179 177 175 173 170 163 158 156 150 147 156 157 158 152 142 169 150 140 156 169 147 143 132 111 97 92 113 130 111 116 148 153 158 162 173 176 175 173 171 168 165 163 162 160 158 155 154 154 155 156
291 288 286 289 291 290 290 290 288 285 286 286 288 286 283 274 271 274 276 282 283 288 286 279 278 279 260 218 189 179 180 177 174 175 177 177 176 175 173 167 161 158 156 151 151 150 154 153 162 157 157 175 157 155 169 157 155 154 148 133 134 140 145 151 142 112 125 126 144 170 172 171 171 168 166 164 164 163 161 160 158 156 157 158 159
295 294 295 295 293 288 282 282 279 278 279 282 283 283 280 277 273 273 271 275 284 289 292 285 280 276 270 229 194 187 178 184 176 175 174 176 175 172 171 162 159 156 155 151 150 151 150 157 161 165 165 153 152 120 129 135 137 144 175 162 162 159 160 163 168 153 156 142 140 128 137 153 162 165 167 166 166 165 163 161 160 160 160 162 163
290 288 286 286 289 290 286 279 278 273 270 269 272 276 282 280 274 269 272 273 279 287 291 292 289 285 277 239 205 188 184 181 179 174 176 174 171 170 170 165 161 159 156 155 154 154 156 157 160 158 156 158 156 152 161 170 178 172 160 134 141 148 154 152 152 140 154 150 139 134 149 157 150 163 161 164 172 165 165 163 164 162 164 164 165
283 283 286 286 284 283 284 282 270 265 265 264 270 272 270 273 278 278 271 270 270 275 283 291 293 289 283 240 201 195 186 181 178 176 176 174 171 169 168 166 162 160 159 158 158 160 160 162 165 167 165 169 166 168 169 172 148 123 140 151 150 143 118 94 64 345 198 141 141 150 172 177 153 148 157 165 177 166 165 164 169 167 166 165 166
284 285 286 284 282 281 283 285 284 275 262 258 266 269 270 270 269 268 270 269 266 265 272 280 289 291 288 255 200 189 188 181 178 179 174 176 173 169 167 168 168 163 160 160 162 162 165 168 166 166 170 167 169 164 162 156 162 165 167 158 144 146 157 158 172 69 289 166 153 154 175 204 163 161 176 174 170 173 175 174 170 166 167 167 167
285 287 285 284 284 283 282 282 279 276 275 271 269 269 269 268 267 264 259 261 259 260 262 268 277 287 284 273 215 185 187 182 178 178 177 177 175 173 171 170 172 171 167 165 163 165 168 165 169 176 167 169 163 162 162 162 166 165 163 159 162 165 165 172 169 179 184 175 161 169 175 175 187 166 169 188 183 180 180 173 171 169 169 169 170
287 285 284 283 281 280 276 278 277 273 265 261 262 264 264 265 265 265 260 252 250 253 256 259 269 277 281 278 237 187 186 182 176 177 179 178 176 173 171 170 171 174 173 168 166 168 167 163 168 171 173 161 160 173 169 169 161 158 160 169 173 172 172 174 180 170 167 181 155 159 172 188 175 182 183 183 174 170 165 172 175 172 171 171 171
280 278 276 275 277 275 274 272 272 271 270 266 263 262 263 264 266 264 256 252 248 247 252 255 266 272 272 282 253 196 184 182 180 177 176 176 174 170 168 168 171 175 173 169 167 159 161 165 165 172 175 162 168 168 169 158 160 169 170 178 171 169 176 187 179 174 163 166 174 161 167 185 185 173 191 178 164 163 178 180 174 175 175 174 174
284 278 274 277 275 275 274 273 274 274 266 261 261 262 263 263 263 264 255 251 247 248 250 253 259 266 271 276 264 213 183 179 184 179 175 171 170 168 169 172 171 172 174 172 167 166 170 167 169 165 164 175 159 158 164 175 175 173 173 171 175 179 163 79 53 80 154 183 166 158 183 174 163 182 189 167 174 176 180 190 179 178 178 177 178
277 276 271 267 269 267 266 267 267 266 269 266 262 261 261 261 261 258 258 250 246 245 249 252 255 259 267 266 268 227 188 179 183 180 175 169 167 168 171 172 170 173 179 180 174 172 170 168 166 162 169 168 164 166 170 176 174 149 124 92 97 113 140 162 164 153 167 189 189 175 158 176 177 182 178 146 145 178 189 200 195 185 181 182 182
275 273 271 271 268 267 265 265 266 268 264 257 256 257 260 263 262 252 251 251 245 245 246 251 253 258 258 259 261 238 190 182 179 176 171 164 167 170 171 171 171 174 179 176 176 172 170 167 166 166 165 166 171 173 172 167 159 150 141 146 166 159 152 155 153 159 179 178 204 195 149 162 176 174 130 155 179 182 187 200 210 196 190 187 185
273 270 267 264 263 264 262 260 259 261 265 267 265 262 261 260 254 249 242 245 242 243 248 245 251 251 255 253 253 240 199 182 177 174 169 166 169 171 171 170 171 176 178 172 169 180 174 166 165 166 168 169 170 169 166 165 160 156 159 175 171 163 175 174 170 177 161 184 195 153 126 163 145 133 111 76 91 275 203 210 201 205 198 193 191
263 265 263 263 259 260 261 260 262 260 256 256 256 259 258 255 249 241 240 234 240 238 237 244 243 247 252 254 247 238 209 178 174 175 169 169 171 172 172 170 175 180 180 170 168 163 162 158 167 163 170 173 170 168 172 170 168 172 176 168 160 172 177 176 159 138 156 208 191 164 159 150 158 177 145 120 191 249 218 195 198 202 200 197 194